Stations météo

Publicité
Amsterdam Airport, Pays-Bas (6240): Température de l'air & dewpoint: 11.12.2018 14:00:00 - 17.12.2018 14:00:00 (CET)Amsterdam Airport, Pays-Bas (6240): Température de l'air 5cm: 11.12.2018 14:00:00 - 17.12.2018 14:00:00 (CET)Amsterdam Airport, Pays-Bas (6240): Vitesse du vent & gusts: 11.12.2018 14:00:00 - 17.12.2018 14:00:00 (CET)Amsterdam Airport, Pays-Bas (6240): Direction du vent: 11.12.2018 14:00:00 - 17.12.2018 14:00:00 (CET)Amsterdam Airport, Pays-Bas (6240): reduced air pressure: 11.12.2018 14:00:00 - 17.12.2018 14:00:00 (CET)Amsterdam Airport, Pays-Bas (6240): visibility: 11.12.2018 14:00:00 - 17.12.2018 14:00:00 (CET)Amsterdam Airport, Pays-Bas (6240): Quantités de précipitations: 11.12.2018 14:00:00 - 17.12.2018 14:00:00 (CET)
Date & Time tt [°C] td [°C] tt 5cm [°C] ff [km/h] ff [knt] fx [km/h] fx [knt] dd ppp [hPa] vv [km] rr [mm]
17.12.2018 14:00:00 8,5 6,0 7,7 24 13 36 19 W 1016,5 10 0,2
17.12.2018 13:00:00 8,3 5,3 7,2 26 14 36 19 WSW 1015,9 10 0,0
17.12.2018 12:00:00 8,1 6,3 7,1 21 11 32 18 W 1015,3 10 0,0
17.12.2018 11:00:00 7,8 6,8 7,1 21 11 29 16 WSW 1014,7 10 0,2
17.12.2018 10:00:00 6,9 6,6 6,5 18 10 25 14 SSW 1013,6 8 0,8
17.12.2018 09:00:00 6,1 5,7 5,7 21 11 32 18 S 1012,8 4,0 0,5
17.12.2018 08:00:00 5,6 5,2 5,2 22 12 32 18 SSE 1012,0 4,8 1,2
17.12.2018 07:00:00 5,2 4,8 4,8 21 11 29 16 SSE 1011,7 4,5 0,4
17.12.2018 06:00:00 4,5 4,2 4,1 18 10 29 16 SE 1011,5 4,5 0,2
17.12.2018 05:00:00 3,9 3,6 3,6 16 9 25 14 SE 1011,5 3,2 0,0
17.12.2018 04:00:00 3,2 2,9 3,1 18 10 25 14 SE 1011,7 1,5 0,0
17.12.2018 03:00:00 2,9 2,5 2,9 15 8 22 12 SE 1011,8 0,7 0,0
17.12.2018 02:00:00 2,9 2,5 2,9 21 11 29 16 SSE 1011,8 0,7 0,0
17.12.2018 01:00:00 2,9 2,6 3,0 18 10 32 18 SSE 1012,2 0,9 0,0
17.12.2018 00:00:00 3,1 2,8 3,2 21 11 29 16 SSE 1012,1 1,1 0,0
16.12.2018 23:00:00 3,3 2,9 3,4 15 8 25 14 SSE 1011,8 1,2 0,0
16.12.2018 22:00:00 3,6 3,3 3,7 16 9 22 12 S 1011,7 1,3 0,0
16.12.2018 21:00:00 3,7 3,4 3,7 13 7 18 10 SSE 1011,2 0,7 0,0
16.12.2018 20:00:00 3,7 3,4 3,7 11 6 18 10 SSE 1011,2 0,7 0,0
16.12.2018 19:00:00 3,3 2,9 3,1 13 7 25 14 SSE 1010,7 0,6 0,0
16.12.2018 18:00:00 2,9 2,6 2,9 15 8 22 12 SSE 1010,2 0,4 0,0
16.12.2018 17:00:00 2,9 2,6 2,5 16 9 22 12 S 1010,0 0,4 0,0
16.12.2018 16:00:00 2,4 2,0 2,4 11 6 14 8 SSE 1009,7 0,3 0,0
16.12.2018 15:00:00 2,2 1,9 2,2 13 7 18 10 SSE 1009,7 0,2 0,0
16.12.2018 14:00:00 2,0 1,6 1,9 11 6 18 10 SSE 1009,3 0,2 0,0
16.12.2018 13:00:00 1,8 1,5 1,7 13 7 18 10 SSE 1009,1 0,2 0,0
16.12.2018 12:00:00 1,5 1,1 1,4 8 4 18 10 SSE 1009,4 0,2 0,0
16.12.2018 11:00:00 1,1 0,7 1,0 11 6 22 12 SSE 1009,3 0,2 0,0
16.12.2018 10:00:00 0,8 0,4 0,5 13 7 22 12 SSE 1008,9 0,4 0,0
16.12.2018 09:00:00 0,6 0,2 0,3 16 9 25 14 SSE 1008,6 0,9 0,0
16.12.2018 08:00:00 0,4 0,0 0,1 16 9 29 16 SSE 1008,5 2,2 0,0
16.12.2018 07:00:00 0,3 -0,2 0,1 18 10 29 16 SSE 1008,3 3,4 0,1
16.12.2018 06:00:00 0,1 -0,3 -0,1 24 13 36 19 SSE 1008,6 3,8 0,1
16.12.2018 05:00:00 0,0 -0,6 -0,1 24 13 40 21 SSE 1008,8 4,5 0,1
16.12.2018 04:00:00 -0,2 -0,8 -0,4 29 16 47 25 SSE 1009,1 4,5 0,1
16.12.2018 03:00:00 -0,3 -0,7 -0,5 28 15 43 23 SE 1009,6 2,0 0,7
16.12.2018 02:00:00 -0,7 -1,3 -0,8 31 17 47 25 SE 1010,2 1,9 0,9
16.12.2018 01:00:00 -0,8 -1,5 -1,0 34 18 50 27 SE 1010,4 4,0 0,6
16.12.2018 00:00:00 0,4 -4,0 0,2 34 18 50 27 SSE 1011,7 7 0,0
15.12.2018 23:00:00 0,3 -4,3 -0,1 29 16 50 27 SE 1011,8 10 0,0
15.12.2018 22:00:00 0,2 -4,5 -0,3 34 18 61 33 SE 1012,5 10 0,0
15.12.2018 21:00:00 0,0 -4,5 -0,8 37 20 54 29 SE 1013,7 10 0,1
15.12.2018 20:00:00 0,0 -4,6 -0,8 34 18 47 25 SE 1015,4 10 0,0
15.12.2018 19:00:00 0,3 -4,7 -0,8 31 17 47 25 SE 1016,5 10 0,0
15.12.2018 18:00:00 -0,1 -5,0 -1,1 29 16 50 27 SE 1017,5 10 0,0
15.12.2018 17:00:00 0,5 -5,4 0,0 35 19 54 29 SSE 1019,0 10 0,0
15.12.2018 16:00:00 0,5 -5,4 0,0 31 17 47 25 SE 1019,9 10 0,0
15.12.2018 15:00:00 0,5 -5,6 0,2 29 16 43 23 SSE 1021,0 10 0,0
15.12.2018 14:00:00 0,5 -5,8 0,3 26 14 36 19 SSE 1022,3 10 0,0
15.12.2018 13:00:00 0,6 -4,9 0,3 26 14 40 21 SSE 1023,1 10 0,0
15.12.2018 12:00:00 0,7 -5,4 0,4 22 12 32 18 SE 1024,1 10 0,0
15.12.2018 11:00:00 0,8 -4,3 0,4 18 10 29 16 SE 1024,9 10 0,0
15.12.2018 10:00:00 0,7 -3,8 0,1 15 8 25 14 SE 1025,1 10 0,0
15.12.2018 09:00:00 0,7 -3,5 0,1 16 9 25 14 SE 1025,0 10 0,0
15.12.2018 08:00:00 0,7 -2,9 0,0 13 7 22 12 ESE 1024,9 10 0,0
15.12.2018 07:00:00 0,5 -2,2 -0,1 13 7 18 10 ESE 1024,9 10 0,0
15.12.2018 06:00:00 0,6 -2,1 0,1 13 7 18 10 ESE 1025,1 10 0,0
15.12.2018 05:00:00 0,7 -2,2 0,1 15 8 22 12 E 1025,3 10 0,0
15.12.2018 04:00:00 0,5 -2,2 -0,1 11 6 18 10 E 1025,5 10 0,0
15.12.2018 03:00:00 0,7 -2,3 0,1 8 4 11 6 E 1026,0 10 0,0
15.12.2018 02:00:00 0,9 -2,8 0,3 8 4 14 8 ESE 1026,1 10 0,0
15.12.2018 01:00:00 1,2 -2,9 0,5 9 5 14 8 ESE 1026,0 10 0,0
15.12.2018 00:00:00 1,1 -2,6 0,4 8 4 18 10 E 1025,8 10 0,0
14.12.2018 23:00:00 1,2 -1,8 0,5 13 7 18 10 E 1025,5 10 0,0
14.12.2018 22:00:00 1,2 -1,6 0,5 11 6 18 10 E 1025,8 10 0,0
14.12.2018 21:00:00 1,2 -1,3 0,4 13 7 22 12 E 1025,8 10 0,0
14.12.2018 20:00:00 1,1 -1,0 -0,1 9 5 14 8 E 1026,2 10 0,0
14.12.2018 19:00:00 -0,1 -1,6 -2,4 9 5 14 8 ENE 1025,9 10 0,0
14.12.2018 18:00:00 -1,0 -2,5 -2,5 11 6 14 8 ENE 1025,9 10 0,0
14.12.2018 17:00:00 0,6 -1,6 -1,3 11 6 14 8 E 1025,5 10 0,0
14.12.2018 16:00:00 0,6 -1,7 -0,8 9 5 18 10 E 1024,9 10 0,0
14.12.2018 15:00:00 1,7 -0,9 1,3 13 7 22 12 ENE 1024,3 10 0,0
14.12.2018 14:00:00 3,6 -0,8 3,3 13 7 25 14 E 1024,3 10 0,0
14.12.2018 13:00:00 3,1 -0,5 3,0 15 8 25 14 E 1024,4 10 0,0
14.12.2018 12:00:00 2,5 -0,5 2,8 15 8 25 14 ENE 1024,5 10 0,0
14.12.2018 11:00:00 2,4 -0,3 1,6 15 8 22 12 ENE 1024,9 10 0,0
14.12.2018 10:00:00 2,2 0,0 2,2 15 8 22 12 ENE 1024,6 10 0,0
14.12.2018 09:00:00 1,9 0,4 1,5 15 8 25 14 ENE 1024,3 10 0,0
14.12.2018 08:00:00 1,8 0,4 1,3 13 7 22 12 ENE 1023,8 10 0,0
14.12.2018 07:00:00 1,8 0,3 1,1 13 7 22 12 ENE 1023,3 10 0,0
14.12.2018 06:00:00 1,7 0,2 1,0 13 7 22 12 ENE 1022,9 10 0,0
14.12.2018 05:00:00 1,4 0,0 0,6 15 8 22 12 ENE 1023,0 10 0,0
14.12.2018 04:00:00 1,1 -0,3 -0,2 16 9 22 12 ENE 1023,0 10 0,0
14.12.2018 03:00:00 0,4 -0,8 -1,5 13 7 22 12 ENE 1023,1 10 0,0
14.12.2018 02:00:00 0,5 -0,7 -0,9 15 8 22 12 ENE 1023,0 10 0,0
14.12.2018 01:00:00 1,6 -0,4 0,8 15 8 22 12 ENE 1023,0 10 0,0
14.12.2018 00:00:00 1,7 -0,3 1,2 16 9 25 14 ENE 1023,1 10 0,0
13.12.2018 23:00:00 1,8 -0,3 1,4 18 10 29 16 ENE 1023,0 10 0,0
13.12.2018 22:00:00 1,9 -0,5 1,2 21 11 29 16 ENE 1023,1 10 0,0
13.12.2018 21:00:00 1,6 -0,5 0,7 18 10 29 16 E 1022,8 10 0,0
13.12.2018 20:00:00 1,4 -0,8 0,3 24 13 36 19 ENE 1022,5 10 0,0
13.12.2018 19:00:00 1,8 -0,8 0,2 21 11 36 19 ENE 1021,9 10 0,0
13.12.2018 18:00:00 1,8 -0,7 0,5 22 12 32 18 ENE 1022,0 10 0,0
13.12.2018 17:00:00 2,1 -0,6 0,6 22 12 32 18 ENE 1022,0 10 0,0
13.12.2018 16:00:00 2,3 -0,7 1,1 24 13 32 18 ENE 1021,8 10 0,0
13.12.2018 15:00:00 2,4 -0,5 1,7 22 12 36 19 E 1021,7 10 0,0
13.12.2018 14:00:00 2,2 -0,5 1,9 26 14 40 21 E 1021,8 10 0,0
13.12.2018 13:00:00 2,6 -0,5 2,6 26 14 36 19 E 1022,2 10 0,0
13.12.2018 12:00:00 2,6 -0,3 2,1 24 13 36 19 E 1022,4 10 0,0
13.12.2018 11:00:00 1,9 -0,4 0,8 22 12 32 18 E 1022,8 10 0,0
13.12.2018 10:00:00 1,0 -0,5 0,0 18 10 29 16 E 1023,1 10 0,0
13.12.2018 09:00:00 0,7 -0,5 -0,3 18 10 32 18 E 1022,8 10 0,0
13.12.2018 08:00:00 1,0 -0,2 -0,1 22 12 32 18 E 1022,6 9 0,0
13.12.2018 07:00:00 1,0 0,0 0,1 22 12 32 18 E 1022,2 8 0,0
13.12.2018 06:00:00 1,1 -0,4 0,0 21 11 29 16 E 1022,4 10 0,0
13.12.2018 05:00:00 1,1 -0,5 -0,7 16 9 25 14 ENE 1022,9 10 0,0
13.12.2018 04:00:00 0,2 -0,7 -0,6 16 9 25 14 E 1023,4 10 0,0
13.12.2018 03:00:00 1,1 0,1 0,0 15 8 25 14 E 1023,9 10 0,0
13.12.2018 02:00:00 1,6 0,5 0,5 21 11 29 16 E 1023,9 10 0,0
13.12.2018 01:00:00 1,7 0,5 0,4 18 10 29 16 E 1024,2 10 0,0
13.12.2018 00:00:00 1,4 0,1 0,3 18 10 25 14 E 1024,7 10 0,0
12.12.2018 23:00:00 1,2 -0,1 -0,4 15 8 18 10 E 1025,1 10 0,0
12.12.2018 22:00:00 1,4 -0,1 0,0 11 6 18 10 E 1025,5 10 0,0
12.12.2018 21:00:00 1,7 0,0 0,4 15 8 18 10 E 1025,6 10 0,0
12.12.2018 20:00:00 1,9 -0,5 -1,1 13 7 18 10 E 1025,5 10 0,0
12.12.2018 19:00:00 1,4 -2,0 0,2 8 4 25 14 E 1025,6 10 0,0
12.12.2018 18:00:00 4,0 -1,2 2,9 13 7 25 14 E 1025,8 10 0,0
12.12.2018 17:00:00 4,0 -1,1 2,9 13 7 29 16 ESE 1025,9 10 0,0
12.12.2018 16:00:00 4,1 -0,7 3,4 15 8 25 14 E 1025,6 10 0,0
12.12.2018 15:00:00 4,6 0,3 4,1 16 9 29 16 SE 1025,7 10 0,0
12.12.2018 14:00:00 4,8 0,1 4,9 18 10 29 16 ENE 1026,0 10 0,0
12.12.2018 13:00:00 5,4 1,5 5,0 11 6 18 10 ESE 1026,4 10 0,0
12.12.2018 12:00:00 4,8 1,3 3,7 11 6 22 12 E 1027,0 10 0,0
12.12.2018 11:00:00 4,0 1,3 3,0 16 9 22 12 E 1027,1 10 0,0
12.12.2018 10:00:00 3,7 2,2 2,6 11 6 22 12 E 1026,9 10 0,0
12.12.2018 09:00:00 2,7 2,2 1,2 8 4 14 8 E 1026,5 10 0,0
12.12.2018 08:00:00 2,2 1,8 0,2 5 3 11 6 ENE 1026,2 10 0,0
12.12.2018 07:00:00 0,3 -0,1 -0,5 2 1 4 2 - 1025,7 10 0,0
12.12.2018 06:00:00 -0,4 -0,8 -1,5 2 1 11 6 - 1025,5 10 0,0
12.12.2018 05:00:00 -1,2 -1,7 -3,0 2 1 7 4 ENE 1025,2 10 0,0
12.12.2018 04:00:00 -1,1 -1,5 -2,8 2 1 4 2 - 1025,4 10 0,0
12.12.2018 03:00:00 0,0 -0,3 -2,5 0 0 0 0 N 1025,2 10 0,0
12.12.2018 02:00:00 -1,0 -1,5 -2,0 2 1 4 2 - 1025,2 10 0,0
12.12.2018 01:00:00 0,8 0,3 -1,1 4 2 4 2 W 1025,1 10 0,0
12.12.2018 00:00:00 1,1 0,7 -0,2 4 2 4 2 NW 1025,1 10 0,0
11.12.2018 23:00:00 1,0 0,6 -0,3 2 1 4 2 W 1025,2 10 0,0
11.12.2018 22:00:00 1,9 1,6 -0,5 2 1 7 4 NE 1025,1 10 0,0
11.12.2018 21:00:00 3,0 2,5 1,0 4 2 4 2 W 1024,8 10 0,0
11.12.2018 20:00:00 3,7 3,2 2,2 4 2 11 6 NW 1024,8 10 0,0
11.12.2018 19:00:00 4,2 3,2 3,3 8 4 11 6 W 1024,6 10 0,0
11.12.2018 18:00:00 4,1 2,1 3,3 4 2 11 6 - 1024,3 10 0,0
11.12.2018 17:00:00 5,2 3,4 3,8 9 5 11 6 NW 1024,3 10 0,0
11.12.2018 16:00:00 5,8 4,2 5,2 9 5 14 8 W 1024,3 10 0,0
11.12.2018 15:00:00 6,6 3,4 6,2 15 8 25 14 N 1024,2 10 0,0
11.12.2018 14:00:00 6,8 3,6 6,2 11 6 22 12 N 1024,4 10 0,1

tt = Température de l'air
td = dewpoint
tt 5cm = Température de l'air 5cm
ff = Vitesse du vent
fx = gusts
dd = Direction du vent
ppp = reduced air pressure
vv = visibility
rr = Quantités de précipitations

stations d'obs. à proximité